#timestamp,LO_Frequency,Hit 
1498240815.5,286047005.8,N
1498240835.3,286047004.8,N
1498240855.2,286047004.7,N
1498240875.9,286047007.6,N
1498240895.7,286047007.5,N
1498240915.6,286047005.0,N
1498240935.4,286047007.5,N
1498240955.2,286047006.6,N
1498240975.0,286047008.8,N
1498240976.0,286047008.8,N
1498240995.8,286047006.7,N
1498241015.6,286047006.2,N
1498241035.4,286047008.9,N
1498241055.3,286047007.8,N
1498241075.1,286047007.7,N
1498241095.8,286047010.7,N
1498241115.7,286047009.3,N
1498241135.5,286047009.9,N
1498241155.3,286047010.7,N
1498241175.2,286047008.2,N
1498241195.9,286047008.6,N
1498241215.7,286047010.1,N
1498241235.6,286047010.8,N
1498241255.4,286047010.7,N
1498241275.2,286047010.2,N
1498241295.0,286047010.1,N
1498241295.9,286047010.1,N
1498241315.8,286047008.0,N
1498241335.6,286047009.6,N
1498241355.4,286047009.9,N
1498241375.3,286047007.7,N
1498241395.1,286047010.7,N
1498241415.8,286047010.4,N
1498241435.7,286047009.7,N
1498241455.5,286047009.8,N
1498241475.3,286047009.6,N
1498241495.2,286047011.8,N
1498241515.9,286047009.3,N
1498241535.7,286047011.7,N
1498241555.5,286047009.7,N
1498241575.4,286047010.1,N
1498241595.2,286047009.3,N
1498241615.0,286047009.9,N
1498241615.9,286047009.9,N
1498241635.8,286047012.0,Y
1498241655.6,286047001.3,N
1498241675.4,286047003.5,N
1498241695.3,286047003.6,N
1498241715.1,286047005.4,N
1498241735.8,286047006.0,N
1498241755.7,286047005.0,N
1498241775.5,286047006.7,N
1498241795.3,286047009.2,N
1498241815.2,286047006.6,N
1498241835.9,286047006.6,N
1498241855.7,286047009.1,N
1498241875.6,286047006.2,N
1498241895.4,286047006.5,N
1498241915.2,286047006.3,N
1498241935.0,286047006.6,N
1498241935.9,286047006.6,N
1498241955.8,286047006.6,N
1498241975.6,286047006.1,N
1498241995.4,286047008.8,N
1498242015.3,286047006.1,N
1498242035.1,286047008.3,N
1498242055.8,286047010.4,N
1498242075.7,286047010.0,N
1498242095.5,286047012.3,Y
1498242115.3,286047004.4,N
1498242135.2,286047001.3,N
1498242155.9,286047002.4,N
1498242175.7,286047002.0,N
1498242195.6,286047002.5,N
1498242215.4,286047004.0,N
1498242235.2,286047003.9,N
1498242255.1,286047004.4,N
1498242256.0,286047004.4,N
1498242275.8,286047001.3,N
1498242295.6,286047003.5,N
1498242315.4,286047003.2,N
1498242335.3,286047003.7,N
1498242355.1,286047005.9,N
1498242375.8,286047005.1,N
1498242395.7,286047005.3,N
1498242415.5,286047005.7,N
1498242435.3,286047007.2,N
1498242455.2,286047007.2,N
1498242475.9,286047007.1,N
1498242495.7,286047006.9,N
1498242515.6,286047006.7,N
1498242535.4,286047006.6,N
1498242555.2,286047006.3,N
1498242575.0,286047008.8,N
1498242575.9,286047008.8,N
1498242595.8,286047006.1,N
1498242615.6,286047006.5,N
1498242635.4,286047006.3,N
1498242655.3,286047009.0,N
1498242675.1,286047008.3,N
1498242676.0,286047008.3,N
1498242695.8,286047010.4,N
1498242715.7,286047010.1,N
1498242735.5,286047009.5,N
1498242755.3,286047010.2,N
1498242775.2,286047010.1,N
1498242795.9,286047011.7,Y
1498242815.7,286047003.5,N
1498242835.6,286047002.9,N
1498242855.4,286047003.6,N
1498242875.2,286047003.2,N
1498242895.0,286047002.9,N
1498242896.0,286047002.9,N
1498242915.8,286047005.6,N
1498242935.6,286047005.6,N
1498242955.4,286047005.6,N
1498242975.3,286047005.0,N
1498242995.1,286047004.9,N
1498243015.8,286047005.3,N
1498243035.7,286047007.6,N
1498243055.5,286047007.5,N
1498243075.3,286047009.2,N
1498243095.2,286047006.6,N
1498243115.9,286047009.2,N
1498243135.7,286047007.9,N
1498243155.6,286047010.7,Y
1498243175.4,286046999.8,N
1498243195.2,286047004.4,N
1498243215.1,286047001.7,N
1498243216.0,286047001.7,N
1498243235.8,286047001.9,N
1498243255.6,286047001.7,N
1498243275.4,286047001.8,N
1498243295.3,286047001.9,N
1498243315.1,286047002.2,N
1498243335.8,286047001.4,N
1498243355.7,286047002.3,N
1498243375.5,286047001.8,N
1498243395.3,286047001.6,N
1498243415.2,286047001.5,N
1498243435.9,286047003.9,N
1498243455.7,286047005.3,N
1498243475.6,286047005.3,N
1498243495.4,286047004.9,N
1498243515.2,286047004.9,N
1498243535.0,286047006.7,N
1498243535.9,286047006.7,N
1498243555.8,286047004.9,N
1498243575.6,286047005.8,N
1498243595.4,286047004.8,N
1498243615.3,286047004.9,N
1498243635.1,286047005.2,N
1498243655.8,286047005.7,N
1498243675.7,286047004.8,N
1498243695.5,286047005.8,N
1498243715.3,286047004.7,N
1498243735.2,286047004.6,N
1498243755.9,286047008.5,N
1498243775.7,286047006.6,N
1498243795.5,286047008.4,N
1498243815.4,286047009.3,N
1498243835.2,286047010.1,Y
1498243855.1,286047005.0,N
1498243856.0,286047005.0,N
1498243875.8,286047004.7,N
1498243895.6,286047005.6,N
1498243915.5,286047007.5,N
1498243935.3,286047007.1,N
1498243955.1,286047007.1,N
1498243975.8,286047006.9,N
1498243995.7,286047006.7,N
1498244015.5,286047007.1,N
1498244035.3,286047006.7,N
1498244055.2,286047008.8,N
1498244075.9,286047007.8,N
1498244095.7,286047008.9,N
1498244115.6,286047006.2,N
1498244135.4,286047008.2,N
1498244155.2,286047010.8,Y
1498244175.1,286047001.8,N
1498244176.0,286047001.8,N
1498244195.8,286047002.5,N
1498244215.6,286047001.9,N
1498244235.5,286047001.3,N
1498244255.3,286047001.8,N
1498244275.1,286047003.7,N
1498244295.9,286047003.6,N
1498244315.7,286047003.8,N
1498244335.5,286047003.5,N
1498244355.3,286047003.1,N
1498244375.2,286047005.1,N
1498244395.0,286047004.9,N
1498244395.9,286047004.9,N
